Location: Moscow
(55.7500°N, 37.5830°E)
Time: 21:00:40
(UTC+03:00)

Vanguard 2 Rocket - Pass Details

Date: 03 December 2021
Orbit: 554 x 3325 km, 32.9° (Epoch: 20 January)

Event Time Altitude Azimuth Distance (km) Brightness Sun altitude
Rises 21:45:27 0° 241° (WSW) 4,300 10.6 -46.0°
Reaches altitude 10° 21:49:00 10° 224° (SW) 3,736 10.1 -46.5°
Enters shadow 21:49:08 10° 224° (SW) 3,723 10.0 -46.5°
